{"data":{"norad_id":68444,"intl_designator":"2026-067AE","name":"SHARJAH-SAT-2","alt_names":[],"object_type":"PAYLOAD","status":"ACTIVE","operator":null,"country":"UAE","launch_date":"2026-03-30","launch_site_code":"AFWTR","launch_vehicle":null,"mission":null,"orbit_class":"UNKNOWN","rcs_meters":null,"size_class":null,"mass_kg":null,"dimensions":null,"purposes":[],"wikipedia_slug":null,"has_3d_model":false,"image_url":null,"decayed_at":null,"tle_current":{"epoch":"2026-05-24T20:41:41.319456Z","epoch_age_seconds":97505,"freshness":"FRESH","line1":"1 68444U 26067AE  26144.86228379  .00005625  00000+0  27539-3 0  9995","line2":"2 68444  97.4559 103.7164 0003614  81.5091 278.6552 15.18571762  8407","mean_motion":15.18571762,"eccentricity":0.0003614,"inclination_deg":97.4559,"raan_deg":103.7164,"arg_perigee_deg":81.5091,"mean_anomaly_deg":278.6552,"bstar":0.00027539,"rev_number":840,"period_min":94.825943431444,"perigee_km":507.66682645686,"apogee_km":512.64568482204,"semimajor_km":6888.2932556395,"source":"CELESTRAK","updated_at":"2026-05-25T13:38:07.840288Z"}}}